Regional Weather Roundup
Issued by NWS Northern Indiana

Home | Current Version | Previous Version | Text Only | Print | Product List | Glossary Off
Versions: 1 2 3 4 5 6 7 8 9 10 11 12 13 14 15 16 17 18 19 20 21 22 23 24 25 26 27 28 29 30 31 32 33 34 35 36 37 38 39 40 41 42 43 44 45 46 47 48 49 50

000
ASUS43 KIWX 271710
RWRIWX

KIWX WEATHER ROUNDUP
NATIONAL WEATHER SERVICE NORTHERN INDIANA
100 PM EDT TUE JUN 27 2017

NOTE: "FAIR" INDICATES FEW OR NO CLOUDS BELOW 12,000 FEET WITH NO
SIGNIFICANT WEATHER AND/OR OBSTRUCTIONS TO VISIBILITY.

* THESE STATIONS ARE NOT UNDER NWS QUALITY CONTROL. THEY ALSO MAY NOT
  REPORT WEATHER SUCH AS PRECIPITATION OR FOG.

INZ001>027-271800-
NORTHERN INDIANA

CITY           SKY/WX    TMP DP  RH WIND       PRES   REMARKS
GARY*          MOSUNNY   72  43  35 CALM      30.13F
VALPARAISO     MOSUNNY   74  46  36 NW10      30.13F
MICHIGAN CITY* SUNNY     70  46  43 W8        30.14F
LAPORTE*       SUNNY     70  44  39 W10G21    30.14S
KNOX*          PTSUNNY   70  36  28 NW9       30.13F
SOUTH BEND     SUNNY     70  46  42 W14G21    30.12F
ELKHART*       MOSUNNY   72  45  37 W9        30.12F
GOSHEN         PTSUNNY   67  47  48 W14       30.12F
MONTICELLO*    MOSUNNY   69  46  44 W7        30.15F
LOGANSPORT*    MOSUNNY   68  48  49 NW5       30.16S
ROCHESTER*     MOSUNNY   70  46  43 W9        30.15S
WARSAW*        PTSUNNY   68  46  45 W5        30.13F
AUBURN*        MOSUNNY   68  43  40 W12       30.13F
FORT WAYNE     MOSUNNY   69  46  43 W7        30.14F
HUNTINGTON*    MOSUNNY   65  46  48 NW5       30.14F
PERU/GRISSOM   MOSUNNY   68  49  50 CALM      30.14F

$$
INZ028>050-271800-
CENTRAL INDIANA

CITY           SKY/WX    TMP DP  RH WIND       PRES   REMARKS
LAFAYETTE      SUNNY     69  47  45 CALM      30.15F
KOKOMO*        MOSUNNY   67  47  48 NW8       30.16F
MUNCIE*        SUNNY     68  45  43 NW5       30.15F
INDIANAPOLIS   MOSUNNY   69  47  45 N7        30.16F

$$
MIZ043>046-050>051-056>058-064>065-071>073-077>080-271800-
SOUTHWEST LOWER MICHIGAN

CITY           SKY/WX    TMP DP  RH WIND       PRES   REMARKS
BATTLE CREEK   PTSUNNY   69  46  43 W14       30.10F
BENTON HARBOR  SUNNY     70  47  43 W13       30.13S
COLDWATER*     MOSUNNY   69  44  39 W9G18     30.11F
HILLSDALE*     PTSUNNY   68  45  42 W12G18    30.10F
HOLLAND        SUNNY     68  50  52 W15       30.11S
GRAND RAPIDS   PTSUNNY   69  49  48 W12       30.08F
KALAMAZOO      PTSUNNY   70  43  37 W13G22    30.11F
STURGIS*       PTSUNNY   69  48  47 W8        30.11F
THREE RIVERS*  PTSUNNY   69  46  43 W13G18    30.11F

$$
OHZ001>008-015>018-024>025-271800-
NORTHWEST OHIO

CITY           SKY/WX    TMP DP  RH WIND       PRES   REMARKS
WAUSEON*       PTSUNNY   70  41  35 NW9       30.10F
DEFIANCE       PTSUNNY   66  44  45 NW7       30.12F
FINDLAY        MOSUNNY   66  43  43 N9        30.12S
TOLEDO EXPRESS MOSUNNY   68  42  38 W12       30.10F
TOLEDO METCALF SUNNY     69  44  40 NW10      30.11S
LIMA           SUNNY     65  44  46 N8        30.13F

$$
AND FOR LAKE MICHIGAN COASTAL AND OPEN LAKE BUOY OBSERVATIONS

STATION/POSITION TEMP    WIND        PRES    VSBY  WAVE
                 AIR SEA DIR/SP/G                  HT/PER
                 (F)     (DEG/KT/KT) (MB)    (MI)  (FT/S)
CALUMET HARBOR    66      40/  6/  8 1019.7F
MICHIGAN CITY     64     260/ 10/ 11   N/A
BURNS HARBOR      65     330/  5/  7 1021.0S
SOUTH LAKE BUOY   61 61  270/  6/  8 1019.7F         1/ 3
4 MI NW BRIDGMAN  64 69  270/ 10/ 14 1020.5          2/ 3
MICHIGAN CITY     64 66  280/  6/ 10   N/A           2/ 4

$$
&&



USA.gov is the U.S. government's official web portal to all federal, state and local government web resources and services.